2023-001C (55011 NORAD) Tracking and Keplerian Element Data

This shows tracking and keplerian element data for the satellite.

Feedback or suggestion? Click here.




ElementValue
Catalog55011
Name2023-001C
Epoch Orbit170
Epoch Day13.85592211
Epoch Year2023
RAAN75.7967
Inclination97.506
Eccentricity0.001096
Argument of Perigee193.8663
Mean Anonmoly166.2268
Mean Motion15.11955097
Decay Rate0.00012526
L11 55011U 23001C 23013.85592211 .00012526 00000+0 73251-3 0 9996
L22 55011 97.5060 75.7967 0010960 193.8663 166.2268 15.11955097 1706



Live tracking and technical data element details for 2023-001C (NORAD 55011). 2023-001C can be tracked NOW for your location showing map with azimuth and elevation plus other details from your city location.







IsCatalogInMostPopularTable: catalog: 55011, numindb: 3
Update: records affected: 1



GetName: 55011 2023-001C

Hit Count: updated at: Tue, 07 Feb 2023 15:00:45 GMT